Stündliche Wetter Bolshie Krugovichi

Heute, 30 September, Mittwoch

Zeit Temperatur Niederschläge Wind Luftdruck Luftfeuchtigkeit
00:00 +12°C° 0 mm 4 m/S 742 mmHg 79%
01:00 +12°C° 0 mm 4 m/S 742 mmHg 79%
02:00 +13°C° 0 mm 4 m/S 742 mmHg 80%
03:00 +12°C° 0 mm 4 m/S 742 mmHg 80%
04:00 +12°C° 0 mm 4 m/S 741 mmHg 80%
05:00 +12°C° 0 mm 5 m/S 741 mmHg 81%
06:00 +12°C° 0.4 mm 5 m/S 741 mmHg 81%
07:00 +12°C° 0.4 mm 5 m/S 741 mmHg 81%
08:00 +12°C° 0 mm 5 m/S 741 mmHg 82%
09:00 +13°C° 0 mm 6 m/S 741 mmHg 79%
10:00 +14°C° 0 mm 6 m/S 741 mmHg 75%
11:00 +15°C° 0 mm 7 m/S 740 mmHg 72%
12:00 +15°C° 0.1 mm 6 m/S 740 mmHg 70%
13:00 +15°C° 0.1 mm 6 m/S 741 mmHg 69%
14:00 +15°C° 0.1 mm 5 m/S 741 mmHg 68%
15:00 +15°C° 0 mm 5 m/S 741 mmHg 67%
16:00 +14°C° 0 mm 4 m/S 741 mmHg 67%
17:00 +14°C° 0 mm 4 m/S 741 mmHg 66%
18:00 +14°C° 0 mm 4 m/S 741 mmHg 65%
19:00 +13°C° 0 mm 4 m/S 741 mmHg 64%
20:00 +13°C° 0 mm 4 m/S 741 mmHg 63%
21:00 +13°C° 0 mm 4 m/S 741 mmHg 62%
22:00 +13°C° 0 mm 4 m/S 741 mmHg 61%
23:00 +13°C° 0 mm 4 m/S 740 mmHg 60%

Morgen, 1 Oktober, Donnerstag

Zeit Temperatur Niederschläge Wind Luftdruck Luftfeuchtigkeit
00:00 +13°C° 0 mm 4 m/S 740 mmHg 62%
01:00 +12°C° 0 mm 4 m/S 740 mmHg 63%
02:00 +12°C° 0 mm 4 m/S 740 mmHg 65%
03:00 +12°C° 0 mm 5 m/S 739 mmHg 63%
04:00 +13°C° 0 mm 5 m/S 739 mmHg 61%
05:00 +13°C° 0 mm 5 m/S 739 mmHg 59%
06:00 +13°C° 0 mm 5 m/S 738 mmHg 59%
07:00 +13°C° 0 mm 5 m/S 738 mmHg 60%
08:00 +14°C° 0 mm 5 m/S 738 mmHg 61%
09:00 +14°C° 0 mm 6 m/S 738 mmHg 66%
10:00 +14°C° 0 mm 6 m/S 739 mmHg 72%
11:00 +14°C° 0 mm 7 m/S 739 mmHg 78%
12:00 +16°C° 0.1 mm 6 m/S 739 mmHg 73%
13:00 +17°C° 0.1 mm 6 m/S 739 mmHg 68%
14:00 +19°C° 0.1 mm 6 m/S 740 mmHg 63%
15:00 +17°C° 0.1 mm 5 m/S 740 mmHg 67%
16:00 +17°C° 0.1 mm 5 m/S 740 mmHg 70%
17:00 +17°C° 0.1 mm 4 m/S 740 mmHg 74%
18:00 +15°C° 0.1 mm 4 m/S 741 mmHg 78%
19:00 +14°C° 0.1 mm 4 m/S 741 mmHg 82%
20:00 +13°C° 0.1 mm 4 m/S 741 mmHg 86%
21:00 +13°C° 0.1 mm 4 m/S 741 mmHg 84%
22:00 +12°C° 0.1 mm 4 m/S 742 mmHg 82%
23:00 +12°C° 0.1 mm 4 m/S 742 mmHg 80%

übermorgen, 2 Oktober, Freitag

Zeit Temperatur Niederschläge Wind Luftdruck Luftfeuchtigkeit
00:00 +11°C° 0 mm 4 m/S 741 mmHg 80%
01:00 +10°C° 0 mm 5 m/S 741 mmHg 81%
02:00 +9°C° 0 mm 5 m/S 741 mmHg 82%
03:00 +10°C° 0 mm 4 m/S 741 mmHg 81%
04:00 +10°C° 0 mm 4 m/S 741 mmHg 81%
05:00 +10°C° 0 mm 4 m/S 741 mmHg 80%
06:00 +9°C° 0.1 mm 5 m/S 741 mmHg 82%
07:00 +10°C° 0.1 mm 5 m/S 742 mmHg 84%
08:00 +10°C° 0.1 mm 5 m/S 742 mmHg 86%
09:00 +13°C° 0 mm 6 m/S 742 mmHg 82%
10:00 +14°C° 0 mm 6 m/S 742 mmHg 78%
11:00 +15°C° 0 mm 6 m/S 742 mmHg 74%
12:00 +15°C° 0 mm 5 m/S 742 mmHg 74%
13:00 +15°C° 0 mm 5 m/S 742 mmHg 74%
14:00 +14°C° 0 mm 4 m/S 742 mmHg 74%
15:00 +14°C° 0.1 mm 4 m/S 742 mmHg 78%
16:00 +14°C° 0.1 mm 4 m/S 742 mmHg 81%
17:00 +13°C° 0.1 mm 4 m/S 742 mmHg 85%
18:00 +13°C° 0.1 mm 3 m/S 743 mmHg 87%
19:00 +12°C° 0.1 mm 3 m/S 743 mmHg 88%
20:00 +12°C° 0.1 mm 3 m/S 743 mmHg 90%
21:00 +12°C° 0.1 mm 3 m/S 743 mmHg 91%
22:00 +12°C° 0.1 mm 3 m/S 743 mmHg 92%
23:00 +12°C° 0.1 mm 3 m/S 743 mmHg 93%

3 Oktober, Samstag

Zeit Temperatur Niederschläge Wind Luftdruck Luftfeuchtigkeit
00:00 +11°C° 0 mm 3 m/S 743 mmHg 94%
01:00 +11°C° 0 mm 3 m/S 743 mmHg 95%
02:00 +10°C° 0 mm 3 m/S 743 mmHg 96%
03:00 +12°C° 0 mm 2 m/S 743 mmHg 96%
04:00 +12°C° 0 mm 2 m/S 743 mmHg 96%
05:00 +12°C° 0 mm 2 m/S 743 mmHg 96%
06:00 +12°C° 0 mm 2 m/S 743 mmHg 94%
07:00 +11°C° 0 mm 3 m/S 743 mmHg 92%
08:00 +12°C° 0 mm 3 m/S 743 mmHg 91%
09:00 +13°C° 0 mm 3 m/S 743 mmHg 86%
10:00 +14°C° 0 mm 3 m/S 743 mmHg 82%
11:00 +16°C° 0 mm 3 m/S 744 mmHg 78%
12:00 +17°C° 0 mm 4 m/S 743 mmHg 74%
13:00 +18°C° 0 mm 4 m/S 743 mmHg 69%
14:00 +19°C° 0 mm 4 m/S 743 mmHg 65%
15:00 +18°C° 0 mm 4 m/S 743 mmHg 69%
16:00 +17°C° 0 mm 3 m/S 743 mmHg 73%
17:00 +17°C° 0 mm 3 m/S 743 mmHg 77%
18:00 +16°C° 0 mm 3 m/S 743 mmHg 80%
19:00 +14°C° 0 mm 4 m/S 743 mmHg 83%
20:00 +13°C° 0 mm 4 m/S 744 mmHg 87%
21:00 +13°C° 0 mm 4 m/S 743 mmHg 86%
22:00 +13°C° 0 mm 4 m/S 743 mmHg 86%
23:00 +13°C° 0 mm 4 m/S 743 mmHg 86%

4 Oktober, Sonntag

Zeit Temperatur Niederschläge Wind Luftdruck Luftfeuchtigkeit
00:00 +13°C° 0.1 mm 4 m/S 743 mmHg 86%
01:00 +13°C° 0.1 mm 4 m/S 743 mmHg 87%
02:00 +13°C° 0.1 mm 4 m/S 743 mmHg 87%
03:00 +13°C° 0.3 mm 4 m/S 743 mmHg 88%
04:00 +13°C° 0.3 mm 5 m/S 743 mmHg 89%
05:00 +13°C° 0.3 mm 6 m/S 743 mmHg 90%
06:00 +13°C° 1.1 mm 6 m/S 743 mmHg 91%
07:00 +13°C° 1.1 mm 6 m/S 743 mmHg 93%
08:00 +13°C° 1.1 mm 6 m/S 743 mmHg 94%
09:00 +14°C° 1.2 mm 6 m/S 743 mmHg 92%
10:00 +15°C° 1.2 mm 6 m/S 743 mmHg 90%
11:00 +15°C° 1.2 mm 6 m/S 743 mmHg 89%
12:00 +16°C° 0.1 mm 7 m/S 742 mmHg 85%
13:00 +16°C° 0.1 mm 7 m/S 742 mmHg 82%
14:00 +17°C° 0.1 mm 8 m/S 742 mmHg 79%
15:00 +17°C° 0 mm 7 m/S 742 mmHg 80%
16:00 +16°C° 0 mm 7 m/S 742 mmHg 82%
17:00 +16°C° 0 mm 6 m/S 742 mmHg 83%
18:00 +16°C° 0.1 mm 6 m/S 741 mmHg 86%
19:00 +15°C° 0.1 mm 5 m/S 741 mmHg 89%
20:00 +15°C° 0.1 mm 5 m/S 741 mmHg 91%
21:00 +15°C° 0 mm 5 m/S 741 mmHg 93%
22:00 +14°C° 0 mm 4 m/S 741 mmHg 94%
23:00 +14°C° 0 mm 4 m/S 741 mmHg 95%

5 Oktober, Montag

Zeit Temperatur Niederschläge Wind Luftdruck Luftfeuchtigkeit
00:00 +14°C° 0 mm 3 m/S 741 mmHg 95%
01:00 +13°C° 0 mm 3 m/S 741 mmHg 95%
02:00 +13°C° 0 mm 3 m/S 741 mmHg 95%
03:00 +13°C° 0 mm 3 m/S 740 mmHg 95%
04:00 +13°C° 0 mm 3 m/S 740 mmHg 95%
05:00 +14°C° 0 mm 3 m/S 740 mmHg 94%
06:00 +14°C° 0 mm 3 m/S 740 mmHg 93%
07:00 +14°C° 0 mm 4 m/S 740 mmHg 91%
08:00 +14°C° 0 mm 4 m/S 740 mmHg 90%
09:00 +15°C° 0.1 mm 4 m/S 740 mmHg 87%
10:00 +16°C° 0.1 mm 5 m/S 739 mmHg 85%
11:00 +19°C° 0.1 mm 5 m/S 739 mmHg 82%
12:00 +19°C° 0.1 mm 5 m/S 739 mmHg 81%
13:00 +19°C° 0.1 mm 5 m/S 739 mmHg 80%
14:00 +19°C° 0.1 mm 6 m/S 738 mmHg 79%
15:00 +19°C° 0 mm 5 m/S 738 mmHg 80%
16:00 +19°C° 0 mm 4 m/S 738 mmHg 81%
17:00 +19°C° 0 mm 3 m/S 737 mmHg 82%
18:00 +19°C° 0.2 mm 3 m/S 737 mmHg 86%
19:00 +18°C° 0.2 mm 3 m/S 737 mmHg 89%
20:00 +17°C° 0.2 mm 3 m/S 737 mmHg 93%
21:00 +17°C° 0.3 mm 3 m/S 737 mmHg 93%
22:00 +17°C° 0.3 mm 3 m/S 737 mmHg 94%
23:00 +16°C° 0.3 mm 3 m/S 737 mmHg 95%
Mehr zeigen

We Need Your Consent

Meteoprog and our Service Providers may store and access personal data such as cookies, device identifiers or other similar technologies on your device and process such data to personalise content and ads, as well as provide social media features and to analyse the traffic.

  • Store and/or access information on your device

    Cookies, device identifiers or other information can be stored or accessed on your device for the purposes indicated above.

  • Personalised ads and content, ad and content measurement, audience insights, and products development

    Ads and content can be personalised based on a profile. More data can be added to better personalise ads and content. Ad and content performance can be measured. Insights about the audience who saw the ads and content can be derived. Such data can be used to develop or improve user’s experience, systems and software.

By clicking ‘I Agree’ you will allow the use of indicated cookies, device identifiers, web beacons or other similar technologies. Your settings can be changed in the browser on your device.

For certain purposes, legitimate interests may be relied on, rather than consent. You can read more about this in our Privacy and Cookie Policy.